User: anonymous   Login
Location: Newark
(35.8833°N, 14.5000°E)
Time: 11:17:43
(UTC+00:00)
Language:

UNISAT 6 - Orbit

View from above orbital plane
View from above orbital plane
View from above satellite
View from above satellite

Ground track
Ground track

The orbit data is extracted from the following two-line orbital elements,

1 40012U 14033C   19287.86197750 +.00000163 +00000-0 +31432-4 0  9995
2 40012 097.7397 149.2826 0059728 076.7928 283.9936 14.74017295286098
Epoch (UTC): 14 October 2019 20:41:14
Eccentricity: 0.0059728
inclination: 97.7397°
perigee height: 606 km
apogee height: 690 km
right ascension of ascending node: 149.2826°
argument of perigee: 76.7928°
revolutions per day: 14.74017295
mean anomaly at epoch: 283.9936°
orbit number at epoch: 28609

The dashed part of the orbit path shows where the satellite is in the earth's shadow,  

DLR